Location: Dompnac
(44.5644°N, 4.1026°E)
Time: 04:35:30
(UTC+00:00)

Iridium 4 Rocket - Visible Passes

Search period start: 18 January 2021 00:00
Search period end: 28 January 2021 00:00
Orbit: 586 x 903 km, 86.9° (Epoch: 17 January)

Date Brightness Start Highest point End Pass type
(mag) Time Alt. Az. Time Alt. Az. Time Alt. Az.
18 Jan 6.0 06:25:12 10° SE 06:29:39 25° ENE 06:34:18 10° NNE visible
18 Jan 3.9 18:28:14 10° N 18:33:45 45° E 18:38:53 10° SSE visible
18 Jan 5.6 20:08:44 10° NNW 20:13:23 26° WNW 20:17:47 10° SW visible
19 Jan 6.7 05:44:48 10° E 05:47:01 12° ENE 05:49:17 10° NE visible
19 Jan 4.7 17:45:45 10° NNE 17:50:08 22° ENE 17:54:16 10° SE visible
19 Jan 4.3 19:24:56 10° N 19:30:30 54° W 19:35:39 10° SSW visible
20 Jan 5.3 06:37:42 10° SSE 06:42:54 40° E 06:48:20 10° NNE visible
20 Jan 5.4 17:05:21 10° ENE 17:06:12 10° ENE 17:07:03 10° ENE visible
20 Jan 3.5 18:41:37 10° N 18:47:21 73° E 18:52:35 10° S visible
20 Jan 6.2 20:23:10 10° NW 20:26:30 16° WNW 20:29:42 10° WSW visible
21 Jan 6.4 05:56:05 10° ESE 06:00:06 20° ENE 06:04:14 10° NNE visible
21 Jan 4.2 17:58:45 10° NNE 18:03:52 34° ENE 18:08:38 10° SE visible
21 Jan 5.2 19:38:48 10° NNW 19:43:46 33° W 19:48:25 10° SW visible
22 Jan 5.0 17:16:38 10° NNE 17:20:08 17° ENE 17:23:27 10° ESE visible
22 Jan 3.8 18:55:11 10° N 19:00:48 70° W 19:05:55 10° S visible
23 Jan 5.7 06:08:19 10° SE 06:13:17 32° E 06:18:25 10° NNE visible
23 Jan 3.6 18:12:02 10° N 18:17:31 55° E 18:22:31 10° SSE visible
23 Jan 6.0 19:52:58 10° NNW 19:56:55 20° WNW 20:00:40 10° WSW visible
24 Jan 6.6 05:27:14 10° ESE 05:30:34 16° ENE 05:33:58 10° NE visible
24 Jan 4.5 17:29:22 10° NNE 17:33:56 26° ENE 17:38:12 10° SE visible
24 Jan 4.7 19:08:56 10° NNW 19:14:07 42° W 19:18:52 10° SSW visible
25 Jan 4.9 06:21:04 10° SSE 06:26:36 50° E 06:32:17 10° NNE visible
25 Jan 3.5 18:25:29 10° N 18:31:02 89° ESE 18:36:02 10° S visible
25 Jan 6.6 20:07:58 10° NW 20:09:58 12° WNW 20:11:55 10° W visible
26 Jan 6.1 05:39:06 10° SE 05:43:43 25° ENE 05:48:24 10° NNE visible
26 Jan 3.9 17:42:30 10° N 17:47:38 41° E 17:52:19 10° SSE visible
26 Jan 5.6 19:22:56 10° NNW 19:27:19 26° W 19:31:24 10° SW visible
27 Jan 6.8 04:58:52 10° E 05:01:04 12° ENE 05:03:16 10° NE visible
27 Jan 4.1 06:34:13 10° S 06:40:00 79° E 06:45:56 10° N visible
27 Jan 4.2 18:39:08 10° N 18:44:24 55° W 18:49:11 10° SSW visible
